[[{"header":{"parameterUnit":"m.s-1","parameterCategory":2,"la1":30.2992,"la2":30.254,"lo1":-89.0895,"lo2":-89.0443,"dy":0.0025,"dx":0.0025,"nx":19,"ny":19,"refTime":"2026-04-10T03:00:00:Z","depth":"0","parameterNumber":2,"parameterNumberName":"U-component_of_CURRENTS"},"data":[0,0,0,-0.3368,-0.3371,-0.3425,-0.3425,-0.3362,-0.3362,0,0,0,0,0,0,0,0,0,0,0,-0.3338,-0.3339,-0.3368,-0.3371,-0.3425,-0.3425,-0.3362,-0.3362,0,0,0,0,0,0,0,0,0,0,0,-0.3338,-0.3339,-0.334,-0.3371,-0.3425,-0.3425,-0.3363,-0.3346,0,0,0,0,0,0,0,0,0,0,-0.3306,-0.3291,-0.3339,-0.334,-0.3372,-0.3425,-0.3425,-0.3347,-0.3347,-0.331,0,-0.334,0,-0.3367,-0.3358,-0.3357,0,0,0,-0.3337,-0.329,-0.3333,-0.334,-0.3373,-0.3425,-0.3391,-0.3348,-0.3348,-0.3311,-0.334,-0.3339,-0.3366,-0.3357,-0.3357,-0.3435,-0.3436,0,0,-0.3335,-0.3312,-0.3334,-0.3335,-0.3413,-0.339,-0.3393,-0.3349,-0.3341,-0.334,-0.3338,-0.3365,-0.3357,-0.3356,-0.3433,-0.3435,0,0,0,-0.3348,-0.331,-0.3355,-0.3336,-0.3366,-0.3392,-0.3396,-0.3342,-0.3366,-0.3338,-0.3364,-0.3356,-0.3356,-0.3432,-0.3434,-0.3558,0,0,0,-0.3345,-0.3321,-0.3354,-0.3336,-0.3369,-0.3369,-0.3389,-0.3369,-0.3366,-0.3365,-0.3356,-0.3355,-0.343,-0.3433,-0.3551,-0.3604,0,0,0,-0.3331,-0.3318,-0.334,-0.3335,-0.3379,-0.3372,-0.3391,-0.3369,-0.3382,-0.3357,-0.3355,-0.3429,-0.3432,-0.3545,-0.3594,-0.3595,0,0,0,-0.3284,-0.3363,-0.3339,-0.3432,-0.338,-0.3483,-0.3392,-0.3421,-0.3411,-0.3356,-0.3431,-0.3434,-0.3543,-0.3588,-0.359,-0.3374,-0.3379,0,0,-0.3372,-0.3372,-0.3434,-0.3417,-0.3545,-0.3471,-0.358,-0.3509,-0.3445,-0.3425,-0.3428,-0.3553,-0.3594,-0.3594,-0.3555,-0.3554,0,0,0,-0.3456,-0.3499,-0.3534,-0.3595,-0.3641,-0.3678,-0.3625,-0.3609,-0.3592,-0.3462,-0.3583,-0.3605,-0.36,-0.3461,-0.3462,-0.309,-0.3448,-0.3448,-0.3448,-0.3515,-0.3568,-0.3676,-0.3746,-0.3794,-0.3811,-0.3829,-0.3794,-0.3709,-0.3733,-0.3727,-0.3845,-0.3703,-0.3699,-0.3323,-0.3752,-0.3753,-0.3753,-0.3754,-0.3666,-0.3713,-0.3781,-0.3905,-0.3937,-0.4002,-0.4012,-0.3965,-0.3959,-0.389,-0.3878,-0.3627,-0.3706,-0.3304,-0.3762,-0.3761,-0.376,-0.3759,-0.3758,-0.3695,-0.3714,-0.3821,-0.3973,-0.4061,-0.4096,-0.4135,-0.4125,-0.4063,-0.4076,-0.3835,-0.3829,-0.3447,-0.4037,-0.4037,-0.4038,-0.4038,-0.4038,-0.4038,-0.3635,-0.3747,-0.3877,-0.4031,-0.4094,-0.4156,-0.4194,-0.4173,-0.4057,-0.3954,-0.395,-0.3435,-0.393,-0.3887,-0.4043,-0.4042,-0.4041,-0.4041,-0.4041,-0.355,-0.3694,-0.3853,-0.396,-0.409,-0.3957,-0.4114,-0.3953,-0.3976,-0.3862,-0.3316,-0.3856,-0.3776,-0.3772,-0.3724,-0.3829,-0.3829,-0.3829,-0.3829,-0.3489,-0.3578,-0.3765,-0.3874,-0.393,-0.384,-0.351,-0.3348,-0.3128,-0.2891,-0.3025,-0.2868,-0.2893,-0.2753,-0.2771,-0.27,-0.2543,-0.2541,-0.2539,-0.3406,-0.3513,-0.3548,-0.3731,-0.378,-0.3551,-0.2965,-0.2451,-0.2273,-0.2457,-0.2557,-0.2612,-0.2355,-0.2424,-0.2185,-0.2241,-0.2119,0,0]},{"header":{"parameterUnit":"m.s-1","parameterCategory":2,"la1":30.2992,"la2":30.254,"lo1":-89.0895,"lo2":-89.0443,"dy":0.0025,"dx":0.0025,"nx":19,"ny":19,"refTime":"2026-04-10T03:00:00:Z","depth":"0","parameterNumber":3,"parameterNumberName":"V-component_of_CURRENTS"},"data":[0,0,0,-0.047,-0.0468,-0.0353,-0.0352,-0.0166,-0.0164,0,0,0,0,0,0,0,0,0,0,0,-0.0513,-0.0513,-0.047,-0.0468,-0.0353,-0.0352,-0.0166,-0.0164,0,0,0,0,0,0,0,0,0,0,0,-0.0513,-0.0513,-0.0513,-0.0467,-0.0353,-0.0352,-0.0166,-0.0259,0,0,0,0,0,0,0,0,0,0,-0.0374,-0.0422,-0.0513,-0.0513,-0.0467,-0.0353,-0.0352,-0.0264,-0.0253,-0.0212,0,-0.0206,0,-0.0184,-0.0152,-0.0151,0,0,0,-0.0452,-0.0431,-0.0406,-0.0512,-0.0466,-0.0353,-0.04,-0.0258,-0.0246,-0.0197,-0.0203,-0.0196,-0.0181,-0.0151,-0.015,-0.0044,-0.0044,0,0,-0.0459,-0.048,-0.0414,-0.0399,-0.045,-0.0404,-0.0397,-0.0251,-0.024,-0.0203,-0.0192,-0.0178,-0.015,-0.0148,-0.0044,-0.0044,0,0,0,-0.0487,-0.0485,-0.0463,-0.0406,-0.039,-0.0401,-0.0393,-0.0247,-0.0242,-0.019,-0.0176,-0.0149,-0.0146,-0.0043,-0.0044,-0.0157,0,0,0,-0.049,-0.0502,-0.0466,-0.0476,-0.0394,-0.0321,-0.0392,-0.0252,-0.0235,-0.0177,-0.0149,-0.0145,-0.0043,-0.0043,-0.0153,-0.0221,0,0,0,-0.0516,-0.0504,-0.0498,-0.0478,-0.0435,-0.0324,-0.0309,-0.0248,-0.0226,-0.0151,-0.0144,-0.0043,-0.0043,-0.015,-0.0215,-0.0263,0,0,0,-0.0532,-0.0545,-0.0498,-0.0507,-0.0437,-0.0398,-0.031,-0.0263,-0.021,-0.0148,-0.0043,-0.0044,-0.0149,-0.0211,-0.0259,-0.0186,-0.0199,0,0,-0.0565,-0.055,-0.0558,-0.0514,-0.052,-0.0412,-0.0387,-0.028,-0.0197,-0.0085,-0.0082,-0.0155,-0.0214,-0.0262,-0.0209,-0.0222,0,0,0,-0.058,-0.0598,-0.0588,-0.0578,-0.0521,-0.0471,-0.0358,-0.0302,-0.0212,-0.0168,-0.0131,-0.0165,-0.0192,-0.0138,-0.0147,0.0159,-0.0045,-0.0045,-0.0045,-0.0654,-0.0642,-0.0673,-0.0651,-0.061,-0.0502,-0.0456,-0.0354,-0.026,-0.0243,-0.0239,-0.033,-0.0273,-0.0279,0.0035,-0.0207,-0.0208,-0.0208,-0.0208,-0.0766,-0.081,-0.0764,-0.0796,-0.0716,-0.0674,-0.0536,-0.047,-0.0402,-0.0315,-0.0335,-0.0237,-0.0297,0.0044,-0.0215,-0.0214,-0.0213,-0.0212,-0.0212,-0.0863,-0.0889,-0.0891,-0.093,-0.0898,-0.0791,-0.0776,-0.0646,-0.0527,-0.0534,-0.044,-0.0436,-0.0152,-0.0534,-0.0535,-0.0536,-0.0536,-0.0536,-0.0537,-0.098,-0.0984,-0.1069,-0.1074,-0.1087,-0.1055,-0.092,-0.0874,-0.0708,-0.0565,-0.0563,-0.0129,-0.043,-0.0435,-0.0545,-0.0543,-0.0542,-0.0542,-0.0541,-0.1146,-0.1136,-0.1278,-0.1318,-0.134,-0.1278,-0.1166,-0.0965,-0.0896,-0.0803,-0.0192,-0.0561,-0.0518,-0.0506,-0.0512,-0.0636,-0.0636,-0.0636,-0.0636,-0.1259,-0.1266,-0.1456,-0.154,-0.1563,-0.1392,-0.1196,-0.0883,-0.042,-0.0105,-0.0058,0.009,0.008,0.0169,0.0165,0.0178,0.0232,0.0233,0.0235,-0.1382,-0.1429,-0.1575,-0.1636,-0.1644,-0.1468,-0.1098,-0.0477,0.0146,0.0301,0.0352,0.0315,0.0565,0.0525,0.0692,0.0662,0.0692,0,0]}],[{"header":{"parameterUnit":"m.s-1","parameterCategory":2,"la1":30.2992,"la2":30.254,"lo1":-89.0895,"lo2":-89.0443,"dy":0.0025,"dx":0.0025,"nx":19,"ny":19,"refTime":"2026-04-10T03:00:00:Z","depth":"2","parameterNumber":2,"parameterNumberName":"U-component_of_CURRENTS"},"data":[0,0,0,-0.1704,-0.17,-0.1646,-0.1647,-0.1775,-0.1776,0,0,0,0,0,0,0,0,0,0,0,-0.1809,-0.181,-0.1704,-0.17,-0.1646,-0.1647,-0.1775,-0.1776,0,0,0,0,0,0,0,0,0,0,0,-0.1809,-0.181,-0.181,-0.1699,-0.1646,-0.1647,-0.1775,-0.1784,0,0,0,0,0,0,0,0,0,0,-0.182,-0.1751,-0.181,-0.181,-0.1698,-0.1646,-0.1647,-0.1783,-0.1784,-0.1833,0,-0.1835,0,-0.1741,-0.1782,-0.1783,0,0,0,-0.1774,-0.1749,-0.1818,-0.181,-0.1697,-0.1645,-0.1691,-0.1783,-0.1783,-0.1835,-0.1835,-0.1835,-0.1743,-0.1783,-0.1784,-0.1994,-0.1995,0,0,-0.1777,-0.1721,-0.1817,-0.1819,-0.1698,-0.1692,-0.1688,-0.1782,-0.1743,-0.1835,-0.1836,-0.1745,-0.1784,-0.1784,-0.1992,-0.1994,0,0,0,-0.1736,-0.1722,-0.1785,-0.1818,-0.1754,-0.1689,-0.1685,-0.174,-0.1785,-0.1836,-0.1747,-0.1784,-0.1785,-0.1991,-0.1993,-0.2163,0,0,0,-0.1741,-0.1693,-0.1787,-0.1741,-0.1751,-0.1681,-0.164,-0.1783,-0.1785,-0.1746,-0.1784,-0.1786,-0.1989,-0.1992,-0.2155,-0.2215,0,0,0,-0.1809,-0.1694,-0.1716,-0.1741,-0.1682,-0.1679,-0.1727,-0.1781,-0.1727,-0.1783,-0.1787,-0.1988,-0.1991,-0.2147,-0.2202,-0.2297,0,0,0,-0.1723,-0.1752,-0.1714,-0.17,-0.1683,-0.1799,-0.1725,-0.1764,-0.1822,-0.1785,-0.1989,-0.1993,-0.2145,-0.2195,-0.2289,-0.1923,-0.1929,0,0,-0.1735,-0.1749,-0.1754,-0.172,-0.1855,-0.1811,-0.1941,-0.1951,-0.1901,-0.198,-0.1984,-0.2157,-0.2201,-0.2295,-0.2142,-0.2141,0,0,0,-0.1743,-0.1779,-0.1807,-0.1841,-0.1915,-0.2033,-0.2026,-0.2048,-0.212,-0.1928,-0.2187,-0.2209,-0.2263,-0.2027,-0.2028,-0.2011,-0.201,-0.201,-0.201,-0.1804,-0.1847,-0.193,-0.2036,-0.2114,-0.2202,-0.2295,-0.2332,-0.2275,-0.2332,-0.2371,-0.2588,-0.234,-0.2336,-0.2403,-0.2404,-0.2405,-0.2405,-0.2405,-0.1905,-0.1948,-0.2053,-0.2153,-0.2318,-0.2451,-0.2581,-0.2565,-0.2683,-0.2577,-0.2621,-0.2245,-0.2345,-0.242,-0.2417,-0.2415,-0.2414,-0.2412,-0.2412,-0.1889,-0.1942,-0.1999,-0.2204,-0.242,-0.2579,-0.2697,-0.2791,-0.2825,-0.289,-0.2587,-0.2578,-0.2662,-0.2906,-0.2906,-0.2907,-0.2908,-0.2908,-0.2909,-0.1868,-0.1948,-0.2032,-0.2262,-0.2378,-0.2541,-0.2766,-0.2796,-0.2786,-0.2739,-0.2734,-0.2755,-0.2739,-0.2691,-0.292,-0.2918,-0.2917,-0.2916,-0.2915,-0.1846,-0.1845,-0.1973,-0.2064,-0.2265,-0.2274,-0.2528,-0.2544,-0.2647,-0.2576,-0.2636,-0.2639,-0.2539,-0.253,-0.2476,-0.2637,-0.2637,-0.2637,-0.2637,-0.179,-0.1823,-0.1873,-0.1916,-0.1965,-0.2094,-0.1962,-0.1912,-0.2072,-0.2048,-0.2074,-0.1853,-0.1875,-0.1727,-0.1737,-0.1662,-0.1612,-0.1611,-0.1609,-0.1788,-0.1821,-0.1763,-0.1773,-0.1786,-0.1767,-0.1605,-0.1346,-0.1332,-0.1574,-0.195,-0.2558,-0.2291,-0.2305,-0.2116,-0.2118,-0.2013,0,0]},{"header":{"parameterUnit":"m.s-1","parameterCategory":2,"la1":30.2992,"la2":30.254,"lo1":-89.0895,"lo2":-89.0443,"dy":0.0025,"dx":0.0025,"nx":19,"ny":19,"refTime":"2026-04-10T03:00:00:Z","depth":"2","parameterNumber":3,"parameterNumberName":"V-component_of_CURRENTS"},"data":[0,0,0,-0.0377,-0.0374,-0.0247,-0.0246,-0.0063,-0.0061,0,0,0,0,0,0,0,0,0,0,0,-0.0453,-0.0453,-0.0377,-0.0374,-0.0247,-0.0246,-0.0063,-0.0061,0,0,0,0,0,0,0,0,0,0,0,-0.0453,-0.0453,-0.0453,-0.0373,-0.0247,-0.0246,-0.0063,-0.0164,0,0,0,0,0,0,0,0,0,0,-0.0289,-0.0331,-0.0453,-0.0453,-0.0373,-0.0247,-0.0246,-0.0169,-0.0157,-0.0115,0,-0.0122,0,-0.0073,-0.0049,-0.0048,0,0,0,-0.0371,-0.0341,-0.0335,-0.0453,-0.0372,-0.0247,-0.0303,-0.0163,-0.015,-0.01,-0.0119,-0.0111,-0.007,-0.0047,-0.0046,0.0185,0.0186,0,0,-0.0378,-0.0392,-0.0344,-0.0328,-0.0371,-0.0307,-0.0299,-0.0155,-0.0138,-0.0118,-0.0106,-0.0067,-0.0046,-0.0045,0.0184,0.0186,0,0,0,-0.04,-0.0397,-0.0394,-0.0337,-0.0307,-0.0304,-0.0295,-0.0145,-0.0153,-0.0104,-0.0065,-0.0045,-0.0043,0.0183,0.0185,0.0142,0,0,0,-0.0404,-0.041,-0.0399,-0.04,-0.0311,-0.0216,-0.0287,-0.0164,-0.0145,-0.0066,-0.0045,-0.0041,0.0182,0.0184,0.014,0.0101,0,0,0,-0.0453,-0.0413,-0.0417,-0.0402,-0.0348,-0.0218,-0.0216,-0.0159,-0.012,-0.0048,-0.004,0.0181,0.0183,0.0138,0.01,0.0079,0,0,0,-0.0447,-0.0462,-0.0418,-0.0391,-0.035,-0.025,-0.0216,-0.0137,-0.008,-0.0044,0.0182,0.0185,0.0138,0.01,0.0079,0.0033,0.003,0,0,-0.0468,-0.0465,-0.0444,-0.0401,-0.0348,-0.0266,-0.0134,-0.0065,-0.0015,0.0133,0.0139,0.014,0.01,0.0079,0.0191,0.0181,0,0,0,-0.0449,-0.0454,-0.0423,-0.0373,-0.0286,-0.0179,-0.0075,-0.0002,0.0107,0.0034,0.0209,0.0186,0.0172,0.0148,0.0142,0.0197,0.0197,0.0197,0.0197,-0.0532,-0.0473,-0.0437,-0.0357,-0.0276,-0.0103,-0.0006,0.0121,0.0157,0.0208,0.0201,0.0224,0.0204,0.0198,0.0272,0.0272,0.0272,0.0272,0.0272,-0.0589,-0.057,-0.0464,-0.0428,-0.029,-0.0176,0.0064,0.012,0.0242,0.0267,0.0255,0.0168,0.0188,0.027,0.027,0.027,0.027,0.0271,0.0271,-0.0664,-0.0647,-0.0615,-0.0545,-0.0419,-0.0234,-0.0101,0.0062,0.017,0.0189,0.0141,0.0141,0.014,0.0157,0.0157,0.0157,0.0156,0.0156,0.0156,-0.0775,-0.0727,-0.0752,-0.0656,-0.0595,-0.0468,-0.0215,-0.0127,0.0,0.0093,0.0093,0.0185,0.0189,0.0136,0.0153,0.0153,0.0154,0.0154,0.0154,-0.0884,-0.0883,-0.0913,-0.0889,-0.0743,-0.0665,-0.0443,-0.0287,-0.0182,-0.0147,0.0059,0.0062,0.0062,0.0069,0.0016,-0.0,-0.0,-0.0,-0.0,-0.0977,-0.0976,-0.102,-0.0988,-0.0901,-0.0739,-0.0648,-0.0379,-0.0165,-0.0018,-0.0017,0.0011,0.0017,0.0017,0.0025,-0.0027,-0.0055,-0.0055,-0.0055,-0.1061,-0.1072,-0.1109,-0.1071,-0.0951,-0.0864,-0.0731,-0.0326,-0.0017,-0.0053,0.0012,-0.0011,0.0034,0.0042,0.0048,0.0057,-0.0024,0,0]}],[{"header":{"parameterUnit":"m.s-1","parameterCategory":2,"la1":30.2992,"la2":30.254,"lo1":-89.0895,"lo2":-89.0443,"dy":0.0025,"dx":0.0025,"nx":19,"ny":19,"refTime":"2026-04-10T03:00:00:Z","depth":"4","parameterNumber":2,"parameterNumberName":"U-component_of_CURRENTS"},"data":[0,0,0,-0.0571,-0.057,-0.0574,-0.0574,-0.0678,-0.0679,0,0,0,0,0,0,0,0,0,0,0,-0.0581,-0.0581,-0.0571,-0.057,-0.0574,-0.0574,-0.0678,-0.0679,0,0,0,0,0,0,0,0,0,0,0,-0.0581,-0.0581,-0.058,-0.057,-0.0574,-0.0574,-0.0678,-0.0656,0,0,0,0,0,0,0,0,0,0,-0.0643,-0.0626,-0.0581,-0.058,-0.057,-0.0574,-0.0574,-0.0654,-0.0658,-0.0697,0,-0.0685,0,-0.0671,-0.0686,-0.0686,0,0,0,-0.0595,-0.0623,-0.062,-0.058,-0.057,-0.0574,-0.0579,-0.0655,-0.0659,-0.0702,-0.0687,-0.0689,-0.0673,-0.0686,-0.0687,-0.0847,-0.0848,0,0,-0.0595,-0.0592,-0.0617,-0.0622,-0.0557,-0.0579,-0.0579,-0.0657,-0.066,-0.0687,-0.0691,-0.0674,-0.0687,-0.0688,-0.0846,-0.0847,0,0,0,-0.0577,-0.0592,-0.0586,-0.0619,-0.0604,-0.0578,-0.0579,-0.0657,-0.0653,-0.0692,-0.0676,-0.0688,-0.0689,-0.0845,-0.0846,-0.0878,0,0,0,-0.0579,-0.058,-0.0585,-0.0585,-0.0601,-0.0615,-0.0577,-0.0648,-0.0655,-0.0675,-0.0688,-0.069,-0.0844,-0.0845,-0.0875,-0.0861,0,0,0,-0.0583,-0.058,-0.0575,-0.0585,-0.0573,-0.0613,-0.0614,-0.0649,-0.0645,-0.0686,-0.069,-0.0843,-0.0845,-0.0872,-0.0858,-0.0891,0,0,0,-0.0589,-0.0569,-0.0575,-0.0556,-0.0573,-0.0612,-0.0613,-0.0671,-0.0713,-0.0688,-0.0844,-0.0846,-0.0871,-0.0856,-0.0889,-0.0738,0,0,0,-0.0566,-0.0567,-0.0556,-0.0561,-0.0578,-0.0614,-0.0673,-0.0733,-0.0762,-0.0827,-0.083,-0.0876,-0.0857,-0.0891,-0.0877,0,0,0,0,-0.0551,-0.0533,-0.0545,-0.055,-0.0596,-0.0669,-0.0721,-0.0763,-0.0853,-0.0788,-0.0914,-0.0902,-0.0921,-0.083,-0.0857,-0.0857,-0.0857,-0.0856,-0.0856,-0.048,-0.0508,-0.0513,-0.0557,-0.0613,-0.0725,-0.08,-0.0876,-0.0892,-0.0954,-0.0958,-0.1041,-0.095,-0.1006,-0.1006,-0.1007,-0.1007,-0.1007,-0.1007,-0.0416,-0.0425,-0.049,-0.0507,-0.0627,-0.0706,-0.0872,-0.0926,-0.1027,-0.102,-0.1039,-0.0907,-0.1011,-0.101,-0.101,-0.1009,-0.1009,-0.1009,-0.1008,-0.0354,-0.0382,-0.0383,-0.0441,-0.0573,-0.0719,-0.086,-0.0979,-0.1046,-0.1091,-0.0999,-0.1065,-0.1027,-0.1107,-0.1107,-0.1107,-0.1107,-0.1108,-0.1108,-0.0316,-0.033,-0.03,-0.0395,-0.0475,-0.0639,-0.0862,-0.0934,-0.1032,-0.1009,-0.1095,-0.1074,-0.1071,-0.1034,-0.111,-0.1109,-0.1109,-0.1109,-0.1109,-0.0274,-0.0227,-0.0194,-0.0225,-0.0428,-0.0578,-0.0785,-0.0893,-0.095,-0.0938,-0.0975,-0.0981,-0.0949,-0.0949,-0.0905,-0.0946,-0.0944,-0.0942,0,-0.0206,-0.0193,-0.0103,-0.016,-0.033,-0.056,-0.0658,-0.0764,-0.0836,-0.0815,-0.0938,-0.0978,-0.0982,-0.0943,-0.094,-0.0887,0,0,0,-0.0143,-0.0116,-0.0046,-0.0089,-0.0309,-0.0538,-0.0701,-0.0705,-0.0828,-0.0813,-0.09,-0.0911,-0.0997,-0.1115,-0.108,-0.1077,-0.1014,0,0]},{"header":{"parameterUnit":"m.s-1","parameterCategory":2,"la1":30.2992,"la2":30.254,"lo1":-89.0895,"lo2":-89.0443,"dy":0.0025,"dx":0.0025,"nx":19,"ny":19,"refTime":"2026-04-10T03:00:00:Z","depth":"4","parameterNumber":3,"parameterNumberName":"V-component_of_CURRENTS"},"data":[0,0,0,-0.0116,-0.0119,-0.0226,-0.0227,-0.0277,-0.0277,0,0,0,0,0,0,0,0,0,0,0,-0.0071,-0.0071,-0.0116,-0.0119,-0.0226,-0.0227,-0.0277,-0.0277,0,0,0,0,0,0,0,0,0,0,0,-0.007,-0.0071,-0.0072,-0.0119,-0.0226,-0.0227,-0.0277,-0.0217,0,0,0,0,0,0,0,0,0,0,-0.0123,-0.0099,-0.0071,-0.0072,-0.012,-0.0226,-0.0227,-0.0215,-0.0221,-0.0204,0,-0.0221,0,-0.0254,-0.0279,-0.0279,0,0,0,-0.0117,-0.0095,-0.0121,-0.0072,-0.0121,-0.0226,-0.0177,-0.0219,-0.0225,-0.0211,-0.0222,-0.0225,-0.0254,-0.0279,-0.0279,-0.0259,-0.0259,0,0,-0.0111,-0.0092,-0.0116,-0.0125,-0.0147,-0.0174,-0.0181,-0.0224,-0.0229,-0.0222,-0.0227,-0.0255,-0.0279,-0.0279,-0.0259,-0.0259,0,0,0,-0.0095,-0.0088,-0.0115,-0.0121,-0.015,-0.0177,-0.0185,-0.0227,-0.0235,-0.0228,-0.0256,-0.0279,-0.028,-0.026,-0.0259,-0.0305,0,0,0,-0.0092,-0.0079,-0.0112,-0.0102,-0.015,-0.0204,-0.0187,-0.0232,-0.0239,-0.0256,-0.0279,-0.028,-0.026,-0.0259,-0.0304,-0.0332,0,0,0,-0.0066,-0.0077,-0.0088,-0.0101,-0.015,-0.0204,-0.0216,-0.0235,-0.0255,-0.0279,-0.028,-0.0261,-0.026,-0.0304,-0.0331,-0.0281,0,0,0,-0.0044,-0.0094,-0.0088,-0.0163,-0.0149,-0.0231,-0.0216,-0.027,-0.0294,-0.0279,-0.026,-0.0259,-0.0304,-0.033,-0.0281,-0.0277,0,0,0,-0.0101,-0.01,-0.015,-0.0148,-0.0246,-0.0216,-0.0282,-0.0298,-0.0265,-0.0241,-0.0241,-0.0304,-0.0331,-0.0281,-0.0219,0,0,0,0,-0.0166,-0.02,-0.0229,-0.0286,-0.0322,-0.0334,-0.0341,-0.0309,-0.0279,-0.0275,-0.0272,-0.0286,-0.0254,-0.025,-0.0255,-0.0255,-0.0255,-0.0255,-0.0255,-0.0213,-0.0256,-0.0339,-0.0386,-0.0417,-0.041,-0.0394,-0.0337,-0.0314,-0.0279,-0.0299,-0.0262,-0.0259,-0.0266,-0.0266,-0.0266,-0.0266,-0.0267,-0.0267,-0.0318,-0.0376,-0.041,-0.0503,-0.0495,-0.0522,-0.0449,-0.0401,-0.0312,-0.0299,-0.0264,-0.027,-0.027,-0.027,-0.0269,-0.0269,-0.0268,-0.0268,-0.0268,-0.0361,-0.0391,-0.0451,-0.0552,-0.0587,-0.0576,-0.0532,-0.0456,-0.0357,-0.0324,-0.0261,-0.0267,-0.0288,-0.0286,-0.0286,-0.0286,-0.0286,-0.0286,-0.0286,-0.0369,-0.0429,-0.0507,-0.0599,-0.0638,-0.0644,-0.0565,-0.0487,-0.0384,-0.0302,-0.032,-0.0267,-0.0267,-0.0286,-0.0284,-0.0284,-0.0285,-0.0285,-0.0285,-0.0434,-0.0431,-0.0533,-0.0591,-0.068,-0.0676,-0.0614,-0.0452,-0.0348,-0.0257,-0.0262,-0.0264,-0.0236,-0.0235,-0.0253,-0.0241,-0.0241,-0.0241,0,-0.0429,-0.0456,-0.0542,-0.0623,-0.068,-0.0681,-0.0555,-0.0456,-0.0331,-0.0333,-0.035,-0.0364,-0.0362,-0.0341,-0.0339,-0.0366,0,0,0,-0.0449,-0.0453,-0.0512,-0.0603,-0.0681,-0.0579,-0.0517,-0.0456,-0.0361,-0.0257,-0.0239,-0.0239,-0.0301,-0.028,-0.0239,-0.0238,-0.0267,0,0]}]]